DW8241 Weather Reports


Display with metric or nautical units.
time (UTC)temp
F
wind
direction
speed
MPH
gust
MPH
rain 1hr
in
rain 24hr
in
rain mn
in
humidity
%
barometer
mb
20260904171610 70 1 5.0 9.0 0.00 0.99 0.01 90 1013.9
20260904170039 69 341 3.0 6.0 0.00 0.99 0.01 92 1014.0
20260904164536 68 349 4.0 7.0 0.00 1.00 0.01 93 1014.1
20260904163046 66 23 1.0 6.0 0.00 1.00 0.01 97 1014.1
20260904161528 65 311 4.0 6.0 0.00 1.00 0.01 98 1014.1
20260904160027 64 301 4.0 7.0 0.00 1.00 0.01 99 1014.0
20260904154525 64 6 2.0 4.0 0.00 1.00 0.01 100 1013.9
20260904153031 64 15 2.0 4.0 0.00 1.00 0.01 100 1013.6
20260904151535 64 302 0.0 2.0 0.00 1.00 0.01 100 1013.8
20260904150023 63 257 0.0 2.0 0.00 1.00 0.01 100 1013.8
20260904144521 63 282 0.0 1.0 0.00 1.00 0.01 100 1013.9
20260904143021 62 302 0.0 0.0 0.00 1.00 0.01 100 1013.9
20260904141520 62 293 0.0 0.0 0.00 1.00 0.01 100 1013.8
20260904140018 62 89 0.0 0.0 0.00 1.00 0.01 100 1013.5
20260904134521 62 330 0.0 1.0 0.00 1.00 0.01 100 1013.5
20260904133016 61 46 0.0 4.0 0.01 1.00 0.01 100 1013.0
20260904131511 60 46 0.0 3.0 0.01 1.00 0.01 100 1012.5
20260904130010 59 54 0.0 0.0 0.01 1.00 0.01 100 1012.7
20260904124508 58 65 0.0 2.0 0.01 1.00 0.01 100 1012.4
20260904123006 57 22 2.0 6.0 0.00 0.99 0.00 100 1012.1
20260904121506 57 34 0.0 2.0 0.00 0.99 0.00 100 1012.0
20260904120006 57 31 1.0 4.0 0.00 0.99 0.00 100 1011.9
20260904114504 56 28 0.0 3.0 0.00 0.99 0.00 100 1011.9
20260904113002 58 37 0.0 3.0 0.00 0.99 0.00 100 1012.0
20260904111502 58 13 0.0 2.0 0.00 0.99 0.00 100 1012.0
20260904110100 57 284 0.0 1.0 0.00 0.99 0.00 100 1012.0
20260904104558 58 13 0.0 0.0 0.00 0.99 0.00 100 1012.0
20260904103057 58 13 0.0 1.0 0.00 0.99 0.00 100 1011.8
20260904101554 58 13 0.0 2.0 0.00 0.99 0.00 100 1011.6
20260904100053 58 353 0.0 1.0 0.00 0.99 0.00 100 1011.6
20260904094554 58 293 0.0 2.0 0.00 0.99 0.00 100 1011.4
20260904093049 59 315 0.0 3.0 0.00 0.99 0.00 100 1011.2
20260904091548 59 297 0.0 2.0 0.00 0.99 0.00 100 1011.1
20260904090046 59 321 0.0 1.0 0.00 0.99 0.00 100 1010.9
20260904084555 59 320 0.0 1.0 0.00 0.99 0.00 100 1010.9
20260904083044 59 299 0.0 1.0 0.00 0.99 0.00 99 1010.8
20260904081541 61 13 0.0 1.0 0.00 0.99 0.00 99 1010.5
20260904080100 61 3 0.0 2.0 0.00 0.99 0.00 99 1010.5
20260904074538 61 28 0.0 2.0 0.00 0.99 0.00 99 1010.7
20260904073038 62 32 0.0 0.0 0.00 0.99 0.00 99 1010.8
20260904071536 62 32 0.0 1.0 0.00 0.99 0.00 99 1011.0
20260904070044 62 32 0.0 0.0 0.00 0.99 0.00 99 1010.7
20260904064533 62 32 0.0 1.0 0.00 0.99 0.00 99 1010.6
20260904063032 62 32 0.0 1.0 0.00 0.99 0.00 99 1010.6
20260904061530 62 72 0.0 0.0 0.00 0.99 0.00 99 1010.5
20260904060029 63 74 0.0 2.0 0.00 0.99 0.00 99 1010.5
20260904054536 63 29 1.0 7.0 0.00 0.99 0.00 99 1010.3
20260904053028 63 41 0.0 9.0 0.00 0.99 0.00 99 1010.3
20260904051525 63 1 1.0 3.0 0.00 0.99 0.00 98 1010.4
20260904050021 63 30 0.0 4.0 0.00 0.99 0.99 98 1010.2
20260904044527 64 26 2.0 6.0 0.00 0.99 0.99 98 1010.1
20260904043031 64 49 2.0 6.0 0.00 0.99 0.99 98 1010.1
20260904041519 64 345 2.0 6.0 0.00 0.99 0.99 98 1010.0
20260904040019 63 319 1.0 4.0 0.00 0.99 0.99 98 1009.9
20260904034519 63 331 0.0 3.0 0.00 0.99 0.99 97 1009.7
20260904033027 63 17 1.0 3.0 0.00 0.99 0.99 97 1009.6
20260904031518 63 18 0.0 3.0 0.00 0.99 0.99 97 1009.7
20260904030016 64 26 0.0 2.0 0.00 0.99 0.99 96 1009.7
20260904024516 64 4 0.0 3.0 0.00 0.99 0.99 95 1009.9
20260904023016 65 34 0.0 4.0 0.00 0.99 0.99 94 1009.3
20260904021518 66 54 0.0 5.0 0.00 0.99 0.99 93 1009.0
20260904020015 67 27 4.0 9.0 0.00 0.99 0.99 91 1009.3
20260904014516 67 4 5.0 11.0 0.00 0.99 0.99 91 1009.1
20260904013014 66 327 3.0 6.0 0.00 0.99 0.99 93 1008.7
20260904011513 67 205 0.0 2.0 0.00 0.99 0.99 92 1007.6
20260904010015 67 105 2.0 4.0 0.00 0.99 0.99 90 1007.6
20260904004512 68 77 1.0 6.0 0.00 0.99 0.99 89 1007.3
20260904003012 70 110 0.0 7.0 0.00 0.99 0.99 86 1006.8
20260904001510 70 134 2.0 11.0 0.00 0.99 0.99 85 1007.7
20260904000010 68 315 8.0 15.0 0.00 0.99 0.99 89 1008.4
20260903234509 68 108 2.0 4.0 0.00 0.99 0.99 89 1006.0
20260903233024 68 153 2.0 7.0 0.00 0.99 0.99 88 1006.0
20260903231508 69 156 3.0 6.0 0.00 0.99 0.99 88 1005.4
20260903230005 69 79 2.0 7.0 0.00 0.99 0.99 87 1005.7
20260903224504 69 113 4.0 9.0 0.00 0.99 0.99 87 1005.8
20260903223003 69 119 4.0 11.0 0.00 0.99 0.99 87 1005.9
20260903221502 70 111 4.0 10.0 0.00 0.99 0.99 87 1005.9
20260903220101 70 128 4.0 8.0 0.00 0.99 0.99 91 1006.5
20260903220001 70 112 4.0 8.0 0.00 0.99 0.99 91 1006.4
20260903214606 68 76 2.0 6.0 0.00 0.99 0.99 97 1007.0
20260903213059 67 76 2.0 7.0 0.00 0.99 0.99 100 1006.7
20260903211604 65 96 3.0 9.0 0.00 0.99 0.99 100 1006.5
20260903210139 64 80 3.0 6.0 0.00 0.99 0.99 100 1006.3
20260903204605 64 103 3.0 10.0 0.00 0.99 0.99 100 1005.9
20260903203057 64 87 3.0 8.0 0.01 0.99 0.99 100 1006.5
20260903201557 64 82 1.0 9.0 0.07 0.99 0.99 100 1006.1
20260903200114 64 72 4.0 9.0 0.22 0.99 0.99 100 1006.6
20260903194556 64 86 6.0 14.0 0.45 0.99 0.99 100 1006.4
20260903193057 64 77 4.0 12.0 0.63 0.98 0.98 100 1006.3
20260903191602 64 20 4.0 14.0 0.90 0.92 0.92 100 1009.1
20260903190054 64 358 7.0 16.0 0.73 0.75 0.75 100 1009.1
20260903184558 63 323 8.0 18.0 0.51 0.53 0.53 99 1009.3
20260903183056 62 336 18.0 29.0 0.32 0.34 0.34 97 1007.4
20260903181549 70 302 6.0 11.0 0.00 0.02 0.02 89 1008.1
20260903180047 71 4 5.0 9.0 0.01 0.02 0.02 87 1007.0
20260903174547 72 70 1.0 8.0 0.02 0.02 0.02 86 1006.8
20260903173046 74 58 5.0 12.0 0.02 0.02 0.02 82 1005.8